Weather History for Spirit of St Louis, MO

Change the Weather History Date:

Thursday, February 7, 2013

  Actual Average Record
Temperature  
Mean Temperature 40 °F -  
Max Temperature 48 °F 42 °F 69 °F (2009)
Min Temperature 32 °F 24 °F -9 °F (2014)
Degree Days  
Heating Degree Days 25    
Moisture  
Dew Point 38 °F    
Average Humidity 81    
Maximum Humidity 93    
Minimum Humidity 65    
Precipitation  
Precipitation 0.12 in - - ()
Sea Level Pressure  
Sea Level Pressure 29.95 in    
Wind  
Wind Speed 3 mph (NW)    
Max Wind Speed 15 mph    
Max Gust Speed 23 mph    
Visibility 8 miles    
Events Rain    
Averages and records for this station are not official NWS values.
T = Trace of Precipitation, MM = Missing Value Source: NWS Daily Summary

Daily Weather History Graph

Daily Weather History Graph

Search for Another Location

Airport:

Trip Planner

Search our weather history database for the weather conditions in past years. The results will help you decide how hot, cold, wet, or windy it might be!

Date:

Astronomy

Feb. 07, 2013 Rise Set
Actual Time 7:02 AM CST 5:31 PM CST
Civil Twilight 6:34 AM CST 5:59 PM CST
Nautical Twilight 6:03 AM CST 6:30 PM CST
Astronomical Twilight 5:32 AM CST 7:01 PM CST
Moon 4:40 AM CST (2/7) 2:57 PM CST (2/7)
Length of Visible Light 11h 24m
Length of Day
10h 29m
Waning Crescent, 9% of the Moon is Illuminated
Feb 7
Waning Crescent
Feb 10
New
Feb 17
First Quarter
Feb 25
Full
Mar 4
Last Quarter

Hourly Weather History & Observations

Time (CST) Temp. Windchill Dew Point Humidity Pressure Visibility Wind Dir Wind Speed Gust Speed Precip Events Conditions
12:54 AM 37.9 °F 34.4 °F 28.9 °F 70% 30.05 in 10.0 mi East 4.6 mph - N/A   Clear
1:54 AM 32.0 °F - 27.0 °F 82% 30.04 in 10.0 mi Calm Calm - N/A   Scattered Clouds
2:54 AM 36.0 °F - 30.0 °F 79% 30.03 in 10.0 mi Calm Calm - N/A   Mostly Cloudy
3:54 AM 39.9 °F 37.8 °F 28.9 °F 65% 30.00 in 10.0 mi East 3.5 mph - N/A   Scattered Clouds
4:54 AM 37.0 °F 34.5 °F 30.0 °F 76% 30.00 in 10.0 mi SSW 3.5 mph - N/A   Overcast
5:54 AM 39.0 °F 35.7 °F 30.0 °F 70% 29.99 in 10.0 mi East 4.6 mph - N/A   Overcast
6:54 AM 39.0 °F 36.8 °F 33.1 °F 79% 29.98 in 6.0 mi East 3.5 mph - 0.01 in Rain Light Rain
7:54 AM 39.9 °F - 33.1 °F 77% 29.97 in 10.0 mi Calm Calm - 0.00 in   Overcast
8:54 AM 43.0 °F - 33.1 °F 68% 29.97 in 10.0 mi Calm Calm - N/A   Overcast
9:54 AM 44.1 °F - 36.0 °F 73% 29.96 in 7.0 mi Calm Calm - 0.00 in Rain Light Rain
10:54 AM 45.0 °F - 37.9 °F 76% 29.96 in 10.0 mi Calm Calm - 0.00 in   Overcast
11:54 AM 46.9 °F - 37.9 °F 71% 29.92 in 10.0 mi Calm Calm - N/A   Overcast
12:54 PM 48.9 °F - 39.9 °F 71% 29.89 in 10.0 mi Calm Calm - N/A   Overcast
1:51 PM 48.2 °F - 39.2 °F 71% 29.88 in 8.0 mi WNW 3.5 mph - 0.01 in Rain Light Rain
1:54 PM 48.0 °F - 39.9 °F 74% 29.90 in 8.0 mi Calm Calm - 0.01 in Rain Light Rain
2:54 PM 46.9 °F - 43.0 °F 86% 29.89 in 4.0 mi Calm Calm - 0.06 in Rain Rain
3:54 PM 46.9 °F - 44.1 °F 90% 29.88 in 7.0 mi Calm Calm - 0.03 in Rain Light Rain
4:10 PM 46.4 °F - 44.6 °F 93% 29.87 in 4.0 mi Calm Calm - 0.00 in Rain Light Rain
4:44 PM 46.4 °F - 44.6 °F 93% 29.88 in 4.0 mi Calm Calm - 0.01 in Rain Light Rain
4:52 PM 46.4 °F - 44.6 °F 93% 29.88 in 4.0 mi Calm Calm - 0.01 in Rain Light Rain
4:54 PM 46.9 °F - 45.0 °F 93% 29.90 in 4.0 mi Calm Calm - 0.01 in Rain Light Rain
4:56 PM 46.4 °F - 44.6 °F 93% 29.88 in 2.5 mi Calm Calm - 0.00 in Rain Light Rain
5:03 PM 46.4 °F - 44.6 °F 93% 29.89 in 3.0 mi Calm Calm - 0.00 in Rain Light Rain
5:54 PM 48.0 °F - 45.0 °F 89% 29.93 in 3.0 mi WNW 8.1 mph - 0.00 in   Overcast
5:59 PM 48.2 °F - 44.6 °F 87% 29.91 in 8.0 mi WNW 9.2 mph - N/A   Overcast
6:54 PM 46.9 °F - 44.1 °F 90% 29.95 in 10.0 mi WNW 6.9 mph - N/A   Overcast
7:54 PM 45.0 °F 38.5 °F 41.0 °F 86% 29.98 in 10.0 mi NW 13.8 mph 20.7 mph N/A   Overcast
8:54 PM 44.1 °F 38.1 °F 39.9 °F 85% 30.01 in 10.0 mi NNW 11.5 mph 21.9 mph N/A   Overcast
9:54 PM 42.1 °F 34.5 °F 37.9 °F 85% 30.03 in 9.0 mi NW 15.0 mph 23.0 mph N/A   Overcast
10:54 PM 41.0 °F 34.7 °F 36.0 °F 82% 30.05 in 9.0 mi NW 10.4 mph - N/A   Overcast
11:54 PM 39.0 °F 32.8 °F 35.1 °F 86% 30.08 in 5.0 mi NW 9.2 mph - N/A   Overcast